Regional Weather Roundup
Issued by NWS Grand Forks, ND

Home | Current Version | Previous Version | Graphics & Text | Print | Product List | Glossary On
Versions: 1 2 3 4 5 6 7 8 9 10 11 12 13 14 15 16 17 18 19 20 21 22 23 24 25 26 27 28 29 30 31 32 33 34 35 36 37 38 39 40 41 42 43 44 45 46 47 48 49 50
657
ASUS43 KFGF 240531
RWRFGF
PRAIRIE TO PINES  WEATHER ROUNDUP
NATIONAL WEATHER SERVICE EASTERN NORTH DAKOTA/GRAND FORKS ND
1200 AM CDT FRI MAR 24 2017

 **SATELLITE DATA USED TO AUGMENT SKY COVER AT AUTOMATED STATIONS**
 *****  WEATHER ACROSS EASTERN NORTH DAKOTA  *****

CITY           SKY/WX    TMP DP  RH WIND       PRES   REMARKS
GRAND FORKS    FAIR      34  33  96 NW6       29.88F FOG
GRAND FRKS AFB FAIR      33  33  99 NW12      29.88F WCI  25
DEVILS LAKE    FAIR      32  30  92 N13       29.93R WCI  22
FARGO          CLOUDY    35  35 100 CALM      29.89R FOG
WAHPETON ARPT    N/A     34  32  93 NE5       29.88S
$$

 ***** WEATHER ACROSS CENTRAL AND WESTERN NORTH DAKOTA  *****

CITY           SKY/WX    TMP DP  RH WIND       PRES   REMARKS
BISMARCK       FAIR      38  34  85 NW13      29.88F
MINOT          MOCLDY    33  30  88 N5        29.95R
JAMESTOWN      FAIR      34  33  96 N20       29.82F WCI  23
MINOT AFB      FAIR      29  27  94 NW3       29.95R
GARRISON         N/A     31  28  89 N6        29.93R
WILLISTON      FAIR      34  31  88 NE5       29.95R
DICKINSON      FAIR      35  34  96 SW8       29.89F
HETTINGER      FAIR      35  34  96 NW8       29.91F
$$

 *****  OTHER AIRPORT OBSERVATIONS IN OUR AREA  *****

CITY           SKY/WX    TMP DP  RH WIND       PRES   REMARKS
WALHALLA       NOT AVBL
GRAFTON AIRPOR FAIR      34  34 100 NW8       29.93R
VALLEY CITY AR CLOUDY    36  36 100 N5        29.90R
CANDO          NOT AVBL
CAVALIER APRT  NOT AVBL
GWINNER        FOG       34  34 100 MISG      29.87F VSB 0
SHEYENNE NWR     N/A     34  34 100 CALM      29.95S
ROLLA          FAIR      30  30 100 N13       29.95R WCI  20
 ***** THE ABOVE OBSERVATIONS ARE NON NWS ARE NOT QUALITY
       CONTROLLED AND MAY MIS-REPORT RAIN FOR SNOW...
$$

  *****  WEATHER ACROSS NORTHERN MINNESOTA  *****

CITY           SKY/WX    TMP DP  RH WIND       PRES   REMARKS
FLAG ISLAND    CLOUDY    36  30  80 NW3       29.89R
WARROAD        CLOUDY    36  30  80 CALM      29.90S
ROSEAU         MOCLDY    36  30  80 W3        29.90S
HALLOCK        FAIR      34  32  93 N5        29.92R FOG
THF RVR FALLS  MOCLDY   N/A N/A N/A NW3       29.89F HAZE
BAUDETTE       CLOUDY    34  32  92 CALM      29.88F
WASKISH        CLOUDY    34  34 100 CALM      29.89S
CROOKSTON      FAIR      34  34 100 N3        29.89F FOG
$$
  *****  WEATHER ACROSS CENTRAL AND WEST MINNESOTA  *****

CITY           SKY/WX    TMP DP  RH WIND       PRES   REMARKS
FOSSTON        CLOUDY    30  30 100 CALM      29.91R FOG
BEMIDJI        CLOUDY    32  32 100 CALM      29.89R FOG
PARK RAPIDS    CLOUDY    34  31  88 CALM      29.87R
ELBOW LAKE     CLOUDY    33  33 100 CALM      29.87R FOG
WADENA         DRIZZLE   32  32 100 N3        29.87R
DETROIT LAKES  CLOUDY    34  32  93 CALM      29.90R FOG
MOORHEAD       CLOUDY    34  34 100 CALM      29.90R FOG
FERGUS FALLS   CLOUDY    34  34 100 E5        29.91S FOG
MORRIS MN      FAIR      36  34  93 E5        29.83F FOG
STAPLES        CLOUDY    32  32 100 CALM      29.88R FOG
$$
  *****  WEATHER ELSEWHERE ACROSS MINNESOTA  *****

CITY           SKY/WX    TMP DP  RH WIND       PRES   REMARKS
DULUTH         FRZ RAIN  32  32 100 CALM      29.88R FOG
INTRNTL FALLS  CLOUDY    33  32  96 CALM      29.89S
ELY            LGT SNOW  32  32 100 CALM      29.87F
CLOQUET        MIX PCPN  32  30  93 CALM      29.88R
WHEATON        CLOUDY    34  34 100 N5        29.88F FOG
BRAINERD       CLOUDY    33  33 100 NE3       29.88R FOG
HIBBING        CLOUDY    31  31 100 CALM      29.87S FOG
ALEXANDRIA     CLOUDY    34  34 100 SE5       29.86R FOG
SAINT CLOUD    CLOUDY    35  35 100 E3        29.86R FOG
MINNEAPOLIS    LGT RAIN  38  36  92 NE6       29.87R FOG
$$

  *****  WEATHER ACROSS SOUTH DAKOTA  *****

CITY           SKY/WX    TMP DP  RH WIND       PRES   REMARKS
SIOUX FALLS    LGT RAIN  45  40  82 NE3       29.76R
BROOKINGS      CLOUDY    37  36  96 NE9       29.75F FOG
WATERTOWN      CLOUDY    35  34  96 NE6       29.79R
HURON          CLOUDY    40  40 100 N9        29.80F
SISSETON         N/A     35  35 100 NE3       29.85R
ABERDEEN       CLOUDY    36  34  92 N7        29.85S FOG
MITCHELL       CLOUDY    43  43 100 N9        29.79S FOG
PIERRE         CLOUDY    42  36  79 N14       29.84R
MOBRIDGE       FAIR      43  35  73 NE12      29.83R
RAPID CITY     FAIR      40  37  89 NW14      29.90R
$$

  *****  SOME WEATHER IN NEARBY STATES *****

CITY           SKY/WX    TMP DP  RH WIND       PRES   REMARKS
GLASGOW MT     FAIR      42  30  62 CALM      29.93R
GREAT FALLS MT FAIR      32  17  54 W7        30.00R
CHEYENNE WY    CLOUDY    36  31  82 N21G41    29.84R
SCOTTSBLUFF NE LGT RAIN  44  40  85 N21G28    29.88R
OMAHA NE       CLOUDY    70  49  47 S26G37    29.63R
DES MOINES IA  MOCLDY    55  40  56 SE13      29.76F
DAVENPORT IA   FAIR      42  37  82 SE10      29.90F
CHICAGO IL     MOCLDY    47  33  58 S7        30.02S
EAU CLAIRE WI  LGT RAIN  39  36  89 CALM      29.88R FOG
LA CROSSE WI   CLOUDY    40  36  86 SE7       29.87F
$$

  *****  SOME NATIONAL WEATHER *****

CITY           SKY/WX    TMP DP  RH WIND       PRES   REMARKS
LA GUARDIA NY  FAIR      40  20  44 S6        30.53S
RALEIGH NC     FAIR      43  25  49 S8        30.53S
ATLANTA GA     CLOUDY    60  39  45 SE10      30.41S
NEW ORLEANS LA FAIR      70  66  87 SE12      30.20S
OKLAHOMA CITY  FAIR      72  42  34 S32G48    29.71F
ALBUQUERQUE NM MOCLDY    42  30  62 SW10G22   29.89S
SALT LAKE CITY FAIR      38  35  89 CALM      30.07R
LOS ANGELES CA FAIR      57  52  83 S6        30.19S
BOISE ID       FAIR      45  25  45 SE8       30.04S
SEATTLE WA     LGT RAIN  45  43  93 VRB3      29.88F
$$

*** WEATHER ACROSS MANITOBA...SASKATCHEWAN AND ONTARIO ***
                ***ONTARIO***

CITY           SKY/WX    TMP DP  RH WIND       PRES   REMARKS
GERALDTON      CLOUDY    30  27  86 SW12      29.86F WCI  21
THUNDER BAY    CLOUDY    32  32 100 VRB2      29.92R
SIOUX LOOKOUT  CLOUDY    34  30  86 SW6       29.84R
TORONTO        CLOUDY    34  23  64 E10       30.24F
BIG TROUT LK   FLURRIES  23  19  86 N10G18    29.87R WCI  12
PICKLE LAKE    NOT AVBL
DRYDEN         CLOUDY    34  32  93 SW10      29.85R
KENORA         CLOUDY    34  30  86 W7        29.87R
$$
                *** MANITOBA***

CITY           SKY/WX    TMP DP  RH WIND       PRES   REMARKS
BRANDON        CLEAR     28  25  86 NE6       29.99R WCI  22
DAUPHIN        CLOUDY    27  21  80 N8        30.06R WCI  18
ISLAND LAKE    FLURRIES  21  16  79 N12G21    30.01R WCI   9
PILOT MOUND      N/A     30  28  93 N8          N/A  WCI  23
THE PAS        FLURRIES  25  19  80 N3        30.09R
THOMPSON       CLEAR      1  -8  66 NE12      30.20R WCI -15
WINNIPEG       CLEAR     30  27  86 N13G18    29.97R WCI  20
LYNN LAKE      CLEAR      0  -6  78 NE8       30.19R WCI -15
CHURCHILL      CLEAR    -15 -20  76 NW12      30.28R WCI -36
GILLAM         CLEAR     -8 -13  77 N16       30.21R WCI -30
$$
                ***SASKATCHEWAN***

CITY           SKY/WX    TMP DP  RH WIND       PRES   REMARKS
ESTEVAN        PTCLDY    28  27  93 N6        29.96R WCI  22
KINDERSLEY     MOCLDY    27  25  93 NE8       29.97R WCI  18
LLOYDMINSTER   LGT SNOW  21  21 100 SW6       30.00R WCI  14
PRINCE ALBERT  CLOUDY    28  21  74 E7        30.06R WCI  21
REGINA         CLEAR     32  27  80 NE9       29.98R WCI  24
YORKTON        CLEAR     25  21  86 N7        30.01R WCI  17
N. BATTLEFORD  CLOUDY    30  28  93 E7        30.04R WCI  23
LA RONGE       CLOUDY    27  21  80 E9        30.08R WCI  17
SASKATOON      CLEAR     27  21  80 E10       30.05R WCI  17
SWIFT CURRENT  CLEAR     32  28  86 E12       29.94R WCI  23
$$
NOTE: THESE ARE AUTOMATED STATIONS WITH LIMITED QUALITY CONTROL
      "FAIR" INDICATES FEW OR NO CLOUDS BELOW 12,000 FEET WITH NO
      SIGNIFICANT WEATHER AND/OR OBSTRUCTIONS TO VISIBILITY.
      SKY/WX - SKY CONDITION AND SIGNIFICANT WEATHER.
      TMP - AIR TEMPERATURE.    DP   - DEWPOINT TEMPERATURE.
      RH  - RELATIVE HUMIDITY.  PRES - PRESSURE.
      HX  - HEAT INDEX.         WCI  - WIND CHILL INDEX.
$




USA.gov is the U.S. government's official web portal to all federal, state and local government web resources and services.